Regional Weather Roundup
Issued by NWS

Home | Current Version | Previous Version | Graphics & Text | Print | Product List | Glossary On
Versions: 1 2 3 4 5 6 7 8 9 10 11 12 13 14 15 16 17 18 19 20 21 22 23 24 25 26 27 28 29 30 31 32 33 34 35 36 37 38 39 40 41 42 43 44 45 46 47 48 49 50
341
ASUS44 KMEG 200910
RWRTN
TENNESSEE HOURLY STATE WEATHER ROUNDUP
NATIONAL WEATHER SERVICE MEMPHIS TN
400 AM CDT WED SEP 20 2017

TNZ002-004-019-021-049-052-054-088>092-201000-
WEST TENNESSEE

CITY           SKY/WX    TMP DP  RH WIND       PRES   REMARKS
MEMPHIS INTL   CLEAR     76  72  87 S8        29.93S
NWS MEMPHIS      N/A     74 N/A N/A MISG        N/A
JACKSON        CLEAR     73  72  96 S6        29.95S
DYERSBURG      CLEAR     72  70  93 SE3       29.93S
SOMERVILLE     CLEAR     73  72  94 VRB5      29.93S
COVINGTON      CLEAR     70  68  94 CALM      29.93R
BOLIVAR        MOCLDY    72  70  94 SE5       29.95R
PARIS          CLEAR     70  70 100 CALM      29.93F
HUNTINGDON     CLEAR     70  70 100 CALM      29.94R
LEXINGTON      CLEAR     72  70  94 S5        29.96S
SELMER         CLEAR     70  68  94 CALM      29.96R
SAVANNAH       PTCLDY    70  68  94 CALM      29.96S
$$

TNZ008-025-027-028-033-062-065-066-201000-
NORTH MIDDLE TENNESSEE

CITY           SKY/WX    TMP DP  RH WIND       PRES   REMARKS
NASHVILLE      CLEAR     69  65  86 CALM      29.98S
PORTLAND       CLOUDY    68  66  94 S6        29.97S
CLARKSVILLE    CLEAR     67  65  93 SE3       29.96R
SMYRNA           N/A    N/A N/A N/A MISG        N/A
COOKEVILLE     FOG       59  59 100 CALM      30.00R VSB 1/4
GALLATIN       CLOUDY    66  64  94 CALM      30.00S
CROSSVILLE     CLEAR     63  61  93 CALM      30.05S
$$

TNZ061-075-076-078-094-096-097-201000-
SOUTH MIDDLE TENNESSEE

CITY           SKY/WX    TMP DP  RH WIND       PRES   REMARKS
TULLAHOMA      CLEAR     64  63  94 SE3       30.02S
WINCHESTER     CLEAR     64  63  94 CALM        N/A
MCMINNVILLE    CLOUDY    63  63 100 CALM      30.02R VSB 1/4
COLUMBIA       MOCLDY    68  68 100 CALM      29.97R
SHELBYVILLE    CLEAR     64  64 100 CALM      30.00R
$$

TNZ017-018-042-046-047-201000-
NORTHEAST TENNESSEE

CITY           SKY/WX    TMP DP  RH WIND       PRES   REMARKS
TRI CITIES     CLEAR     59  59 100 CALM      30.04R FOG
ELIZABETHTON   CLEAR     61  59  94 CALM      30.05R
$$

TNZ012-013-036-069-073-074-201000-
CENTRAL EAST TENNESSEE

CITY           SKY/WX    TMP DP  RH WIND       PRES   REMARKS
KNOXVILLE      PTCLDY    63  61  93 CALM      30.01R
OAK RIDGE      CLOUDY    63  61  93 CALM      30.03R
DOWNTOWN KNOXV PTCLDY    63  63 100 CALM      30.01R FOG
GATLINBURG     CLEAR     59  59 100 CALM      30.02R
MORRISTOWN     CLEAR     63  61  94 CALM      30.02R
JACKSBORO      FOG       64  64 100 NE5       30.06R VSB 0
$$

TNZ083-085-099-201000-
SOUTHEAST TENNESSEE

CITY           SKY/WX    TMP DP  RH WIND       PRES   REMARKS
CHATTANOOGA    FOG       66  65  96 CALM      30.02S VSB 1/4
DAYTON         FOG       64  64 100 CALM      30.00F VSB 0
$$

SKY/WX REPORTED AS FAIR MEANS FEW OR NO CLOUDS BELOW
12 THOUSAND FEET.





USA.gov is the U.S. government's official web portal to all federal, state and local government web resources and services.